Terminal Aerodrome Forecast
Issued by NWS

Home | Current Version | Previous Version | Graphics & Text | Print | Product List | Glossary On
Versions: 1 2 3 4 5 6 7 8 9 10 11 12 13 14
000
FTUS43 KMPX 232320
TAFAXN
TAF
KAXN 232320Z 2400/2424 18014KT P6SM BKN070
     FM240200 15005KT P6SM BKN050 OVC100
     FM241500 10010KT P6SM VCSH OVC050
     FM241900 10012KT 4SM -RA BR OVC025=

USA.gov is the U.S. government's official web portal to all federal, state and local government web resources and services.